Wind_Speed
18 18 16 18 21 23 27 31 25 27 16 5 22 22 24 23 27 25 25 23 19 12
16 17 17 20 20 20 23 28 23 5 22 34 41 32 26 26 30 28 28 26 19 20
12 14 16 18 22 23 24 27 28 25 21 36 54 49 33 29 31 31 31 28 24 23
17 18 17 18 20 23 25 22 27 20 17 28 53 46 34 33 30 36 29 29 29 27
13 17 17 20 23 25 27 25 20 21 23 16 18 30 32 42 30 32 32 28 26 31
14 13 17 20 21 23 26 27 25 21 20 20 18 21 19 48 22 26 31 32 36 32
15 17 17 19 20 22 24 27 25 23 21 21 19 14 14 7 35 40 39 40 39 34
17 18 20 21 20 21 22 25 27 26 22 22 19 11 14 8 7 24 40 31 37 33
20 19 19 20 21 22 22 22 23 26 27 20 19 18 19 13 10 5 2 32 22 33
22 23 22 21 21 21 20 20 21 23 28 32 24 17 19 20 16 12 9 7 25 29
23 20 22 25 22 22 21 19 18 22 26 31 33 29 21 17 21 18 16 11 9 21
25 25 23 25 24 26 28 23 20 20 23 29 32 34 33 24 18 14 17 17 14 21
26 26 25 24 26 26 27 26 25 24 23 25 30 30 32 34 26 16 16 18 18 22
26 27 27 27 25 26 26 26 26 25 25 25 28 34 34 35 31 22 16 16 19 20
Wind_Direction
24 10 356 340 326 312 289 295 294 7 28 18 254 226 218 212 211 210 211 205 220 223
16 11 2 349 341 339 327 329 326 227 162 195 259 243 220 208 214 211 204 198 201 213
358 355 351 351 346 343 340 337 325 320 252 235 236 248 218 214 216 210 205 200 200 206
356 354 353 349 341 337 335 344 344 350 328 254 217 228 230 213 214 210 204 200 200 204
353 344 340 332 327 325 330 335 345 351 341 326 248 224 248 242 216 208 207 202 201 203
341 335 328 321 324 321 322 327 332 339 343 345 335 356 260 240 254 243 209 207 206 200
323 321 310 308 311 315 317 317 320 327 332 332 340 355 8 290 234 262 284 211 212 206
309 303 307 309 305 304 304 306 311 315 320 324 335 339 358 346 303 234 259 273 215 208
298 290 291 296 301 303 301 300 300 305 311 314 317 323 327 321 316 318 307 208 231 233
299 298 291 283 284 285 291 304 311 309 305 305 304 297 308 323 309 304 297 285 233 200
301 323 341 340 324 295 278 277 288 300 307 311 309 306 303 297 303 304 296 276 239 201
322 326 323 322 324 319 318 313 284 281 288 297 300 305 303 296 279 277 280 281 261 220
327 323 321 316 305 305 303 300 299 293 283 283 292 300 302 301 282 264 269 274 265 256
314 312 311 307 303 307 307 301 288 284 288 286 285 288 288 292 289 270 268 266 267 258
Height
783 782 780 778 775 772 770 763 754 732 723 767 794 788 785 780 785 785 783 784 787 789
785 783 781 780 776 772 767 763 766 777 778 772 785 788 777 774 781 780 776 775 779 784
786 784 782 779 775 773 769 764 763 764 757 755 781 786 763 770 775 779 777 775 776 779
787 785 782 780 776 773 771 768 762 763 759 760 757 771 769 765 767 772 774 774 773 776
786 785 783 780 777 771 769 769 767 759 753 755 760 764 769 767 763 765 769 773 776 774
785 784 783 781 777 772 766 766 766 765 761 758 757 756 747 743 765 771 765 769 770 767
784 783 781 780 777 773 767 762 762 762 762 759 756 757 758 750 760 770 759 756 764 764
783 781 779 777 775 772 769 764 757 755 759 761 760 756 757 759 759 765 767 736 756 753
781 778 776 774 773 771 768 764 759 752 749 757 760 760 759 758 759 762 754 756 756 770
777 775 772 770 768 766 764 763 760 756 750 742 751 756 758 756 754 756 756 753 751 754
774 771 769 767 765 762 758 757 756 754 751 747 739 742 748 752 749 748 748 748 747 743
772 770 768 766 764 761 758 755 752 750 748 745 741 738 736 741 744 745 743 742 744 746
773 769 767 765 762 759 757 753 750 746 744 742 740 738 734 731 733 736 739 740 739 738
772 769 766 763 760 757 754 750 747 743 740 738 736 736 734 731 727 726 729 732 735 738